FW2273 Weather Reports


time (UTC)temp
F
wind
direction
speed
knots
gust
knots
rain 1hr
in
rain 24hr
in
rain mn
in
humidity
%
barometer
mb
20260509024503 55 74 0.9 2.6 0.00 0.00 0.00 85 1011.3
20260509023002 56 71 0.0 1.7 0.00 0.00 0.00 84 1011.2
20260509021502 56 71 0.9 1.7 0.00 0.00 0.00 84 1011.0
20260509020001 56 54 0.0 1.7 0.00 0.00 0.00 85 1011.0
20260509014603 55 65 0.0 1.7 0.00 0.00 0.00 86 1011.1
20260509013109 56 65 0.0 1.7 0.00 0.00 0.00 85 1011.0
20260509011559 56 65 0.0 1.7 0.00 0.00 0.00 84 1010.5
20260509010058 57 65 0.0 0.0 0.00 0.00 0.00 82 1010.5
20260509004555 58 65 0.0 2.6 0.00 0.00 0.00 78 1010.4
20260509003054 59 69 0.0 1.7 0.00 0.00 0.00 79 1010.4
20260509001552 59 209 0.0 1.7 0.00 0.00 0.00 80 1010.2
20260509000052 60 209 0.0 0.9 0.00 0.00 0.00 79 1010.1
20260508234552 61 209 0.0 1.7 0.00 0.00 0.00 78 1009.7
20260508233054 62 209 0.0 1.7 0.00 0.00 0.00 75 1009.8
20260508231550 62 184 0.0 1.7 0.00 0.00 0.00 75 1009.9
20260508230057 64 184 0.9 2.6 0.00 0.00 0.00 66 1009.7
20260508224521 65 313 0.9 2.6 0.00 0.00 0.00 62 1009.8
20260508223016 66 350 0.0 2.6 0.00 0.00 0.00 61 1009.6
20260508221533 66 262 0.0 1.7 0.00 0.00 0.00 64 1009.6
20260508220013 66 197 0.0 0.9 0.00 0.00 0.00 72 1009.4
20260508214513 68 197 0.0 1.7 0.00 0.00 0.00 57 1009.3
20260508213020 68 197 0.0 1.7 0.00 0.00 0.00 56 1009.4
20260508211507 68 52 0.0 4.3 0.00 0.00 0.00 56 1009.7
20260508210006 67 106 0.0 1.7 0.00 0.00 0.00 56 1009.6
20260508204510 66 255 0.0 0.9 0.00 0.00 0.00 57 1009.6
20260508203006 67 255 0.0 1.7 0.00 0.00 0.00 54 1009.8
20260508201502 66 200 0.0 1.7 0.00 0.00 0.00 67 1009.9
20260508194557 67 205 0.0 2.6 0.00 0.00 0.00 56 1010.2
20260508193058 67 55 0.9 2.6 0.00 0.00 0.00 54 1010.9
20260508191557 67 226 0.0 1.7 0.00 0.00 0.00 49 1011.2
20260508190052 68 229 0.9 2.6 0.00 0.00 0.00 50 1011.3
20260508184550 67 257 0.0 4.3 0.00 0.00 0.00 51 1011.5
20260508183050 66 216 0.0 3.5 0.00 0.00 0.00 52 1011.9
20260508181547 66 96 0.9 4.3 0.00 0.00 0.00 54 1012.0
20260508180043 65 272 1.7 4.3 0.00 0.00 0.00 49 1012.2
20260508174542 65 106 0.9 4.3 0.00 0.00 0.00 50 1012.2
20260508173040 64 187 0.9 4.3 0.00 0.00 0.00 51 1012.5
20260508171539 63 205 1.7 5.2 0.00 0.00 0.00 52 1012.8
20260508170007 62 242 0.9 3.5 0.00 0.00 0.00 56 1012.9
20260508164506 61 219 0.9 3.5 0.00 0.00 0.00 63 1013.2
20260508163058 60 46 0.9 2.6 0.00 0.00 0.00 69 1013.5
20260508161555 60 227 0.9 3.5 0.00 0.00 0.00 70 1013.8
20260508160055 58 200 0.9 2.6 0.00 0.00 0.00 70 1014.0
20260508154549 57 191 0.9 2.6 0.00 0.00 0.00 76 1014.1
20260508153044 55 163 1.7 3.5 0.00 0.00 0.00 80 1014.2
20260508151539 52 208 0.0 2.6 0.00 0.00 0.00 89 1014.4
20260508150041 49 169 0.9 2.6 0.00 0.00 0.00 96 1014.6
20260508144536 48 194 0.0 1.7 0.00 0.00 0.00 96 1014.6
20260508143031 47 188 0.0 2.6 0.00 0.00 0.00 96 1014.7
20260508141530 46 187 0.0 1.7 0.00 0.00 0.00 96 1014.9
20260508140029 46 187 0.0 1.7 0.00 0.00 0.00 96 1015.1
20260508134528 45 185 0.0 2.6 0.00 0.00 0.00 96 1015.0
20260508133028 45 190 0.0 1.7 0.00 0.00 0.00 96 1015.1
20260508131525 44 139 0.0 1.7 0.00 0.00 0.00 96 1015.3
20260508130023 44 73 0.0 0.0 0.00 0.00 0.00 96 1015.1
20260508124523 43 73 0.0 0.0 0.00 0.00 0.00 96 1015.1
20260508123054 42 73 0.0 0.0 0.00 0.00 0.00 95 1015.1
20260508121559 42 87 0.0 0.0 0.00 0.00 0.00 95 1015.0
20260508120046 41 107 0.0 0.0 0.00 0.00 0.00 95 1014.7
20260508114544 40 107 0.0 0.9 0.00 0.03 0.00 94 1014.5
20260508113045 40 107 0.0 0.0 0.00 0.03 0.00 94 1014.3
20260508111540 40 107 0.0 0.0 0.00 0.03 0.00 94 1013.9
20260508110007 40 107 0.0 0.0 0.00 0.03 0.00 94 1013.6
20260508104509 40 107 0.0 0.0 0.00 0.16 0.00 93 1013.3
20260508103001 41 107 0.0 0.9 0.00 0.16 0.00 93 1013.0
20260508101605 41 126 0.0 0.0 0.00 0.16 0.00 94 1012.8
20260508100057 41 126 0.0 0.0 0.00 0.16 0.00 94 1012.4
20260508094555 41 126 0.0 0.0 0.00 0.16 0.00 94 1012.3
20260508093052 42 126 0.0 0.0 0.00 0.16 0.00 94 1012.1
20260508091553 42 126 0.0 0.0 0.00 0.16 0.00 94 1011.8
20260508090104 42 126 0.0 0.0 0.00 0.16 0.00 94 1011.9
20260508084546 42 126 0.0 0.0 0.00 0.16 0.00 94 1011.7
20260508083103 43 126 0.0 0.0 0.00 0.16 0.00 94 1011.7
20260508081554 43 126 0.0 0.0 0.00 0.16 0.00 93 1011.7
20260508080042 43 126 0.0 0.0 0.00 0.16 0.00 93 1011.4
20260508074540 43 126 0.0 0.0 0.00 0.16 0.00 93 1011.4
20260508073039 43 126 0.0 0.0 0.00 0.16 0.00 93 1011.3
20260508071535 44 126 0.0 0.0 0.00 0.16 0.00 93 1011.5
20260508070100 44 126 0.0 0.0 0.00 0.16 0.00 93 1011.3
20260508064537 44 126 0.0 0.0 0.00 0.17 0.00 93 1011.3
20260508063032 44 126 0.0 0.0 0.00 0.17 0.00 93 1011.3
20260508061527 45 126 0.0 0.0 0.00 0.17 0.00 93 1011.2
20260508060026 45 126 0.0 0.0 0.00 0.17 0.00 93 1011.2
20260508054524 45 126 0.0 0.0 0.00 0.18 0.00 93 1011.2
20260508053023 45 126 0.0 0.0 0.00 0.18 0.00 92 1011.3
20260508051519 45 126 0.0 0.0 0.00 0.18 0.00 92 1011.2
20260508050021 46 126 0.0 0.0 0.00 0.18 0.00 92 1011.2
20260508044517 46 126 0.0 0.0 0.00 0.27 0.00 92 1011.0
20260508043020 46 126 0.0 0.0 0.00 0.27 0.00 91 1011.1
20260508041543 46 126 0.0 0.0 0.00 0.27 0.00 91 1011.0
20260508040043 47 126 0.0 0.0 0.00 0.27 0.00 90 1011.0
20260508034513 47 126 0.0 0.0 0.00 0.30 0.00 90 1011.0
20260508033009 48 126 0.0 0.0 0.00 0.30 0.00 90 1010.8
20260508031516 48 126 0.0 0.0 0.00 0.30 0.00 89 1011.1
20260508030003 48 126 0.0 0.0 0.00 0.30 0.00 89 1011.1